{"data":{"norad_id":81427,"intl_designator":"","name":"UNKNOWN","alt_names":[],"object_type":"UNKNOWN","status":"UNKNOWN","operator":null,"country":null,"launch_date":null,"launch_site_code":null,"launch_vehicle":null,"mission":null,"orbit_class":"UNKNOWN","rcs_meters":null,"size_class":null,"mass_kg":null,"dimensions":null,"purposes":[],"wikipedia_slug":null,"has_3d_model":false,"image_url":null,"decayed_at":null,"tle_current":{"epoch":"2026-09-17T08:57:43.688448Z","epoch_age_seconds":285285,"freshness":"STALE","line1":"1 81427U          26260.37342232  .00000724  00000+0  44173-3 0  9998","line2":"2 81427  98.7158 138.1922 0084439 333.9274  25.7654 14.07352723590958","mean_motion":14.07352723,"eccentricity":0.0084439,"inclination_deg":98.7158,"raan_deg":138.1922,"arg_perigee_deg":333.9274,"mean_anomaly_deg":25.7654,"bstar":0.00044173,"rev_number":59095,"period_min":102.31976507854,"perigee_km":807.25545256642,"apogee_km":929.63427778917,"semimajor_km":7246.5818651778,"source":"CELESTRAK","updated_at":"2026-09-20T09:00:32.388406Z"}}}